GSAT0206 (GALILEO 10)

Last updated on Fri Dec 12 2025 00:02:35 GMT+0000 (Coordinated Universal Time)

1 40890U 15045B 25345.16385340 .00000009 00000+0 00000+0 0 9992 2 40890 55.0029 226.7968 0003855 36.8797 323.2259 1.70473071 63831
UTC large
Height (km)
Speed (km/s)
/
Latitude / Longitude
Inclination (degrees)
Orbital Period (minutes)
Azimuth
Elevation
Range (km)
Doppler Factor

Next 0 passes for location: London (51.5072 / 0.1276)

Sorry there are no passes over London.